Wind_Speed
9 9 8 8 8 8 8 7 7 7 8 9 10 12 12 13 13 11 10 11 10 9 7 7 7 8 7 8 8 8 8 9 9 10 10 10 10 10 11 11 11 11 11 11 11 10 11 11 11
11 10 10 10 10 9 9 10 10 9 10 11 12 13 13 14 13 13 12 12 11 10 9 8 8 8 8 8 9 10 10 9 9 10 10 10 11 11 11 12 11 11 11 11 11 11 11 11 11
12 11 10 11 11 11 11 12 11 11 11 12 14 15 15 15 15 14 13 12 11 11 9 9 9 9 9 10 10 11 11 11 11 10 11 11 11 11 12 12 12 12 12 12 12 12 12 12 12
12 11 11 11 11 11 13 13 13 13 12 13 14 16 16 16 15 14 13 13 12 11 10 10 10 10 10 10 10 11 12 12 12 11 12 11 11 12 12 13 13 13 13 13 13 13 13 13 13
13 13 12 12 12 12 13 14 15 15 15 15 15 16 17 17 15 14 13 13 12 11 11 11 11 11 11 11 12 12 12 12 12 12 12 13 12 12 13 13 13 14 14 14 14 14 14 14 13
12 13 13 13 13 14 14 14 16 17 17 17 17 17 18 17 17 16 15 14 13 12 12 12 12 13 13 13 13 14 13 13 13 13 13 13 13 13 14 14 14 14 15 15 15 15 15 15 14
13 13 14 14 14 14 14 15 17 19 19 19 19 19 18 18 18 17 16 16 14 13 13 13 13 13 14 14 15 14 14 14 14 14 14 14 13 13 14 14 15 15 15 15 15 15 15 15 15
13 13 14 15 15 15 15 17 18 19 19 20 20 20 19 18 18 17 17 17 15 15 15 14 15 15 14 15 15 15 15 15 15 15 15 14 14 14 15 15 16 16 16 16 16 16 15 15 15
13 14 14 15 15 15 16 17 17 19 19 20 21 21 20 18 17 17 18 18 17 17 16 15 16 16 15 15 15 15 15 15 15 15 15 15 15 15 16 16 16 16 17 17 16 16 16 16 16
13 13 13 14 16 15 17 18 17 19 20 20 21 21 20 18 18 18 18 18 18 18 17 16 16 15 16 16 16 16 15 15 15 15 15 15 16 17 17 17 17 17 17 16 16 16 16 16 17
12 12 12 13 14 14 16 18 19 19 20 20 21 21 19 19 19 19 19 19 19 18 17 17 17 17 16 16 16 16 16 16 15 15 16 16 16 17 17 17 18 17 17 16 16 17 17 17 17
12 11 12 12 12 14 15 17 19 19 20 20 20 20 19 18 19 20 20 19 18 19 19 18 17 17 17 16 16 16 16 16 15 15 17 17 17 17 17 18 18 18 18 17 17 18 18 18 18
11 11 12 11 12 14 15 17 17 18 20 20 19 18 18 17 18 19 19 19 19 19 20 19 18 17 16 16 16 16 17 17 17 17 17 18 18 18 19 18 17 18 18 17 17 18 18 18 19
9 10 10 11 12 14 15 15 16 16 18 19 20 19 18 18 16 17 18 18 19 19 19 18 18 17 17 17 16 16 17 17 17 17 18 19 19 19 18 18 17 17 17 17 18 18 18 19 19
9 10 10 11 12 13 14 13 14 15 17 19 20 19 19 18 16 16 18 18 18 18 18 18 18 17 16 15 16 16 17 17 16 17 18 18 18 18 18 18 18 18 18 18 18 18 19 19 19
10 10 10 10 11 13 14 13 13 15 17 19 20 20 18 17 17 17 18 18 18 19 18 18 17 16 15 15 16 16 17 17 17 16 17 17 18 19 18 18 18 19 18 18 18 19 19 19 20
9 11 10 10 10 12 14 14 14 15 16 17 18 19 18 18 17 17 17 18 18 19 18 16 16 16 16 15 15 16 16 16 16 16 17 18 19 19 19 18 18 19 18 19 19 19 19 20 20
9 11 11 11 11 12 14 14 15 14 16 16 17 18 18 19 18 17 17 18 18 18 17 17 16 17 16 16 16 16 15 15 15 16 17 18 19 19 19 18 19 18 18 19 19 19 20 20 20
11 11 10 11 12 13 13 14 15 14 14 15 16 17 17 18 16 16 16 16 15 16 16 17 17 17 16 16 16 16 17 16 15 15 16 18 19 19 20 19 19 18 18 19 20 20 20 20 20
11 12 12 11 13 13 14 14 15 15 15 16 16 16 17 16 15 16 15 15 16 16 15 16 15 15 16 16 15 16 17 17 17 16 17 18 18 18 18 18 19 20 20 20 19 18 18 19 19
11 13 13 14 14 13 14 14 14 14 16 16 16 16 16 15 15 15 15 15 15 15 16 16 16 16 16 17 16 16 17 17 18 18 18 18 18 18 18 19 19 20 20 19 18 17 18 19 19
13 13 13 14 14 14 14 15 13 13 14 15 16 15 14 13 13 13 14 16 15 15 15 16 16 16 17 17 17 17 18 17 17 18 18 18 18 18 18 19 19 18 17 17 18 18 18 19 19
11 11 12 14 14 13 14 15 13 13 13 14 14 13 12 12 13 13 14 15 15 16 16 16 16 17 17 17 17 17 17 17 17 17 17 17 18 18 19 18 17 17 17 17 18 18 18 17 17
10 11 11 12 12 13 13 13 12 12 13 13 12 12 11 12 13 14 15 15 14 14 16 17 16 17 17 17 16 15 15 16 16 16 16 16 16 17 17 16 16 16 17 18 18 17 16 16 17
10 11 11 11 12 12 12 11 11 12 12 13 13 12 11 12 13 13 13 13 12 12 14 15 15 16 16 16 16 16 15 15 16 15 14 15 15 15 14 14 15 15 15 16 16 16 16 16 17
11 10 10 12 13 13 12 12 11 12 12 12 12 12 11 11 11 10 9 9 9 10 11 13 14 14 14 14 14 14 15 15 15 15 15 15 14 14 14 15 15 15 15 15 15 16 17 17 18
11 10 10 11 13 13 12 12 11 11 12 12 11 10 10 10 9 9 8 7 8 9 10 11 12 13 14 14 14 13 14 15 15 15 15 14 14 14 14 15 15 14 14 14 15 15 17 18 18
11 10 11 12 13 13 13 12 12 11 10 11 11 10 9 9 8 7 7 7 8 8 9 9 10 11 12 13 13 13 13 13 14 14 13 13 13 13 14 14 13 13 13 14 15 16 17 18 20
11 11 11 12 13 14 15 13 12 12 11 11 11 10 10 10 8 7 7 8 8 9 10 10 10 10 11 11 11 12 12 13 13 13 12 12 12 12 12 13 13 13 13 14 15 16 17 18 19
11 11 11 13 14 14 15 14 12 12 12 11 11 10 10 9 8 7 7 8 9 9 10 9 9 10 10 10 10 11 11 12 13 12 12 13 12 12 13 12 12 12 13 15 15 17 17 18 19
Wind_Direction
222 216 211 210 208 207 208 217 233 252 261 272 280 283 281 279 279 285 287 292 296 300 292 291 289 286 279 278 278 279 280 278 279 283 285 284 283 282 282 284 284 285 287 286 286 286 287 287 287
224 219 214 209 208 204 210 225 239 254 261 271 282 280 278 279 278 281 285 283 288 288 282 286 285 282 276 276 276 277 279 279 279 282 284 283 281 278 279 280 280 282 285 287 286 284 287 287 287
224 221 214 210 208 210 222 237 246 265 266 271 279 280 279 280 279 280 285 284 280 278 275 281 280 280 276 276 279 277 276 276 279 280 282 282 283 280 279 280 282 280 281 283 285 284 284 286 286
225 218 214 213 212 219 233 244 250 259 269 270 275 278 279 280 280 281 280 279 275 273 272 276 276 278 276 275 276 275 273 273 274 277 280 280 281 281 280 280 282 281 280 281 283 283 281 282 283
225 222 218 215 219 224 240 246 253 258 261 269 273 277 279 279 277 281 281 282 278 273 272 273 276 276 274 272 270 269 271 272 272 275 279 281 283 283 282 279 282 281 279 282 283 282 280 280 280
227 224 221 220 221 227 236 248 255 255 259 267 272 275 279 278 276 280 283 282 278 276 278 274 275 274 271 269 269 269 269 271 273 277 281 283 283 281 281 281 282 282 278 279 283 283 282 280 278
230 228 226 224 225 232 236 248 258 260 263 269 274 278 278 278 278 278 279 277 275 274 274 274 272 271 269 267 266 266 268 270 272 276 280 281 282 281 282 281 282 282 280 279 282 283 282 283 280
228 229 227 226 227 233 240 250 260 266 266 269 273 278 279 279 276 275 275 276 272 273 273 273 273 269 269 268 266 265 268 271 272 276 279 281 282 283 282 281 282 282 282 282 282 281 281 283 282
232 228 228 229 233 238 245 253 261 268 268 271 273 276 276 276 275 274 275 278 274 272 272 270 272 269 267 267 266 265 267 269 272 276 278 279 279 280 281 281 281 281 283 285 286 285 281 282 283
234 232 232 234 238 243 247 253 259 266 268 270 270 271 271 270 271 273 274 275 274 271 267 266 270 271 268 267 264 262 265 268 271 272 275 277 279 277 278 279 281 282 283 283 284 285 285 284 283
243 240 240 242 244 247 249 253 257 265 267 269 270 271 270 269 269 270 270 272 274 269 268 269 270 271 270 269 263 261 264 267 269 271 273 277 280 278 278 279 280 282 281 280 282 284 284 283 283
243 246 249 251 246 248 251 257 259 265 267 268 268 269 270 270 268 267 269 272 273 271 270 269 269 270 271 267 261 258 261 264 267 272 274 276 277 277 277 279 282 281 279 278 281 283 283 282 283
245 249 256 256 250 250 254 261 264 267 268 267 268 273 272 271 272 269 271 274 273 273 274 268 267 268 267 266 263 261 263 267 267 270 273 273 274 276 278 280 283 284 281 279 280 282 284 285 284
248 253 258 256 255 260 261 262 263 265 266 269 269 273 277 270 271 268 269 273 274 273 270 265 266 266 266 265 262 264 266 267 268 270 271 272 274 277 281 281 282 285 284 281 281 283 284 286 285
256 263 267 265 267 268 265 264 264 265 267 270 272 273 278 275 272 270 271 275 274 271 266 266 268 265 262 258 260 264 265 268 270 271 273 272 274 278 281 281 281 284 284 283 283 284 284 286 286
270 272 278 280 279 272 268 269 268 269 270 273 276 276 276 277 274 271 274 274 273 270 266 261 266 268 269 267 260 263 268 269 271 274 273 274 278 280 282 282 282 282 283 283 285 286 286 286 286
277 281 286 287 285 279 278 281 279 276 275 275 277 279 278 278 275 273 277 274 272 269 268 265 265 269 271 270 267 267 272 271 274 275 272 273 275 277 279 280 280 281 282 282 284 286 287 287 287
293 290 291 292 289 287 287 288 284 285 279 278 280 281 283 285 280 277 279 275 273 270 269 269 268 268 268 270 268 268 270 274 277 276 275 276 276 277 278 279 279 282 284 284 284 285 286 287 287
295 295 293 290 290 286 287 291 289 290 281 279 281 283 283 288 283 280 276 274 272 271 270 271 268 266 266 271 272 269 270 274 279 278 277 279 278 278 278 280 280 284 285 286 286 285 286 286 285
288 292 299 297 292 291 287 287 289 291 287 285 283 283 286 287 289 282 277 274 273 272 269 269 266 265 267 272 274 273 273 275 277 282 282 281 280 282 283 281 283 285 285 286 287 284 285 285 285
285 292 301 299 294 290 288 288 291 290 290 289 288 287 286 284 285 282 279 279 277 273 268 264 264 266 267 269 273 273 274 275 278 281 281 284 284 283 282 283 284 286 287 287 287 286 285 285 285
285 294 297 295 291 290 290 296 297 295 298 299 296 296 296 289 288 282 280 280 276 272 266 263 264 266 267 269 272 276 278 279 284 281 279 282 284 284 283 284 283 284 286 287 288 288 287 287 287
290 295 292 291 291 291 292 294 302 300 296 299 300 299 299 297 294 289 284 283 276 269 265 267 265 266 268 271 273 274 278 282 284 284 282 281 283 283 282 283 284 284 286 287 290 290 289 289 289
285 288 289 290 290 292 295 295 301 306 304 302 301 299 298 299 296 291 285 282 278 267 265 267 267 268 269 268 268 271 277 283 286 286 284 284 285 286 284 282 284 285 287 288 290 291 291 289 289
282 287 290 290 289 296 305 301 308 312 309 306 305 305 299 294 290 292 288 283 281 271 265 264 265 266 266 267 267 272 277 283 286 284 284 288 287 285 286 287 285 287 289 290 290 291 294 290 288
283 288 292 298 300 301 303 306 311 310 315 313 308 307 302 289 291 292 291 288 285 279 272 269 267 268 266 267 268 272 275 282 284 283 287 289 289 290 291 290 289 289 291 291 291 292 293 292 290
279 283 286 294 297 296 299 304 310 309 311 314 310 305 297 290 290 294 290 290 289 287 280 273 267 267 266 267 269 272 278 282 285 288 288 288 292 291 290 289 289 287 289 292 295 297 297 296 294
276 282 288 294 299 301 303 305 305 302 305 306 304 300 296 291 287 288 294 296 295 288 283 281 275 274 272 273 273 275 283 287 290 289 289 290 291 292 288 284 287 290 291 297 301 302 302 298 297
272 273 282 289 294 299 302 304 306 302 304 308 308 303 298 293 281 278 291 298 292 286 285 284 285 284 285 283 280 277 282 286 290 291 287 288 289 291 294 291 292 294 296 303 304 302 303 303 303
275 274 277 286 291 293 298 304 304 302 303 303 308 305 303 292 284 279 291 293 291 288 290 291 290 292 292 289 286 285 285 290 292 289 284 283 284 287 295 297 295 296 299 302 304 305 305 306 308
Height
5892 5892 5893 5895 5896 5896 5895 5896 5896 5896 5896 5897 5896 5897 5896 5897 5898 5899 5898 5896 5896 5896 5896 5896 5896 5896 5896 5896 5896 5896 5895 5895 5895 5894 5894 5893 5893 5892 5892 5891 5890 5890 5889 5888 5887 5886 5886 5885 5884
5890 5891 5892 5893 5894 5894 5894 5893 5894 5894 5895 5894 5895 5895 5895 5894 5895 5895 5895 5895 5894 5894 5894 5894 5894 5894 5894 5894 5894 5894 5894 5894 5893 5893 5892 5892 5891 5891 5890 5890 5889 5888 5887 5886 5885 5885 5884 5883 5882
5888 5889 5891 5891 5891 5892 5892 5892 5892 5892 5893 5893 5893 5893 5893 5893 5893 5893 5893 5892 5892 5892 5892 5892 5892 5892 5892 5893 5893 5892 5892 5892 5892 5891 5891 5890 5889 5889 5888 5888 5887 5886 5885 5884 5884 5883 5882 5881 5880
5886 5887 5888 5889 5889 5890 5889 5889 5890 5889 5890 5891 5891 5891 5890 5891 5891 5891 5891 5891 5890 5890 5890 5890 5890 5890 5890 5890 5891 5890 5890 5890 5889 5889 5889 5888 5887 5887 5886 5886 5885 5884 5883 5882 5881 5880 5880 5879 5878
5883 5884 5886 5886 5887 5887 5886 5887 5887 5887 5888 5889 5889 5888 5887 5888 5888 5888 5888 5888 5888 5888 5887 5887 5887 5888 5888 5888 5888 5888 5888 5887 5887 5887 5886 5886 5885 5885 5884 5883 5883 5882 5881 5880 5879 5878 5877 5877 5876
5881 5882 5883 5883 5884 5884 5883 5883 5884 5885 5885 5885 5885 5884 5884 5885 5885 5885 5886 5885 5885 5885 5885 5885 5885 5885 5885 5885 5885 5885 5885 5885 5885 5884 5884 5883 5883 5882 5881 5881 5880 5879 5878 5878 5877 5876 5875 5874 5873
5879 5879 5880 5881 5882 5882 5881 5881 5881 5881 5882 5882 5882 5882 5881 5882 5882 5883 5883 5882 5882 5882 5882 5882 5882 5882 5882 5882 5882 5882 5882 5882 5882 5882 5881 5880 5880 5879 5878 5878 5877 5876 5875 5875 5874 5873 5872 5871 5870
5876 5877 5877 5878 5879 5880 5879 5878 5878 5877 5878 5879 5879 5878 5878 5879 5879 5879 5879 5879 5879 5879 5879 5879 5879 5879 5879 5879 5879 5879 5879 5879 5879 5878 5878 5877 5877 5876 5876 5875 5874 5873 5872 5871 5870 5870 5869 5868 5867
5873 5875 5875 5875 5876 5877 5877 5876 5876 5875 5875 5875 5875 5875 5875 5875 5875 5876 5875 5875 5875 5875 5876 5875 5875 5875 5875 5876 5875 5875 5875 5875 5875 5875 5875 5874 5874 5873 5872 5871 5871 5870 5869 5868 5867 5866 5865 5864 5863
5870 5871 5872 5873 5873 5873 5873 5873 5873 5872 5871 5871 5871 5871 5872 5871 5872 5872 5872 5871 5871 5871 5871 5871 5872 5872 5872 5872 5872 5872 5872 5872 5872 5872 5871 5871 5870 5869 5869 5868 5867 5866 5865 5864 5863 5862 5861 5861 5860
5868 5868 5869 5869 5869 5869 5869 5869 5868 5868 5868 5868 5868 5868 5868 5868 5868 5868 5868 5868 5868 5867 5867 5867 5868 5868 5868 5868 5868 5868 5868 5868 5868 5868 5867 5867 5866 5866 5865 5864 5863 5862 5861 5860 5859 5859 5858 5857 5856
5865 5865 5866 5866 5865 5865 5865 5864 5863 5863 5864 5865 5864 5864 5865 5865 5865 5864 5864 5864 5864 5863 5863 5862 5863 5863 5863 5863 5864 5864 5864 5864 5864 5864 5864 5863 5863 5862 5860 5860 5859 5858 5857 5856 5855 5855 5853 5852 5851
5861 5862 5862 5862 5862 5862 5861 5860 5859 5860 5860 5860 5860 5860 5861 5861 5861 5860 5860 5860 5860 5859 5858 5857 5858 5858 5858 5859 5859 5860 5860 5859 5859 5860 5860 5859 5858 5857 5856 5855 5855 5854 5853 5852 5851 5850 5849 5848 5847
5859 5859 5859 5859 5858 5858 5857 5856 5856 5856 5856 5856 5856 5856 5856 5856 5856 5856 5855 5855 5855 5855 5853 5853 5853 5854 5854 5855 5855 5855 5855 5854 5854 5855 5854 5854 5854 5853 5852 5852 5851 5850 5849 5848 5847 5846 5844 5844 5842
5856 5856 5856 5855 5854 5854 5853 5853 5853 5852 5852 5851 5851 5852 5852 5851 5851 5852 5851 5851 5850 5850 5849 5849 5849 5849 5849 5849 5850 5850 5851 5850 5850 5849 5849 5849 5849 5849 5848 5847 5847 5846 5845 5844 5843 5841 5840 5839 5838
5853 5853 5853 5852 5851 5850 5850 5850 5850 5849 5848 5848 5847 5848 5848 5847 5847 5848 5847 5847 5846 5845 5844 5845 5845 5845 5845 5845 5845 5846 5846 5846 5846 5845 5845 5844 5844 5844 5843 5843 5842 5841 5840 5839 5838 5837 5835 5834 5832
5851 5850 5849 5849 5848 5846 5846 5845 5846 5845 5844 5844 5843 5844 5844 5842 5843 5843 5843 5842 5842 5841 5839 5839 5840 5841 5841 5841 5841 5842 5842 5842 5841 5841 5841 5840 5840 5839 5838 5838 5837 5836 5835 5834 5833 5831 5830 5828 5827
5848 5848 5846 5846 5844 5843 5842 5842 5841 5840 5840 5839 5839 5839 5839 5838 5838 5837 5837 5837 5837 5836 5836 5836 5836 5836 5837 5837 5837 5837 5838 5838 5837 5836 5836 5835 5835 5834 5833 5833 5832 5831 5830 5828 5827 5825 5824 5823 5821
5845 5844 5843 5842 5841 5840 5839 5837 5836 5835 5835 5835 5835 5835 5835 5834 5832 5833 5832 5832 5832 5832 5832 5832 5831 5832 5833 5833 5833 5833 5833 5833 5833 5832 5831 5830 5830 5829 5828 5827 5826 5825 5824 5823 5821 5820 5818 5817 5815
5842 5841 5840 5840 5839 5837 5836 5834 5833 5832 5832 5831 5831 5831 5831 5830 5829 5829 5828 5828 5828 5828 5828 5828 5828 5828 5829 5829 5829 5829 5828 5828 5828 5827 5826 5826 5825 5824 5823 5822 5821 5820 5819 5817 5815 5814 5813 5811 5810
5840 5839 5838 5837 5836 5834 5833 5832 5831 5829 5829 5828 5827 5827 5826 5826 5825 5825 5825 5825 5824 5824 5824 5824 5825 5825 5825 5825 5825 5824 5824 5824 5824 5823 5822 5821 5820 5819 5818 5817 5816 5815 5813 5812 5811 5809 5808 5806 5805
5837 5837 5835 5834 5833 5832 5830 5828 5828 5827 5826 5825 5823 5822 5822 5822 5822 5821 5821 5820 5820 5820 5820 5820 5820 5820 5821 5821 5821 5820 5820 5820 5819 5818 5817 5816 5815 5814 5813 5812 5811 5810 5808 5807 5805 5804 5803 5801 5799
5835 5833 5833 5832 5830 5829 5828 5825 5826 5824 5823 5821 5820 5819 5819 5818 5818 5817 5817 5817 5816 5815 5816 5816 5816 5816 5816 5816 5816 5816 5816 5815 5814 5813 5812 5811 5810 5809 5808 5807 5806 5804 5803 5802 5800 5799 5797 5795 5793
5832 5831 5830 5829 5828 5826 5825 5823 5822 5821 5820 5819 5818 5817 5816 5815 5814 5813 5813 5812 5812 5811 5811 5811 5811 5812 5812 5811 5812 5811 5811 5810 5809 5808 5807 5806 5805 5804 5802 5802 5801 5799 5798 5797 5795 5794 5792 5790 5789
5829 5828 5828 5826 5825 5824 5822 5820 5820 5818 5817 5815 5815 5814 5812 5811 5810 5809 5809 5808 5808 5807 5806 5806 5807 5807 5807 5807 5807 5807 5806 5806 5805 5803 5803 5801 5800 5799 5798 5797 5796 5794 5793 5792 5790 5789 5787 5785 5784
5826 5826 5825 5824 5822 5821 5819 5817 5818 5815 5814 5813 5812 5811 5810 5808 5807 5806 5805 5805 5804 5804 5803 5802 5802 5802 5803 5803 5803 5802 5802 5801 5800 5799 5798 5797 5796 5795 5794 5793 5791 5790 5789 5787 5786 5784 5782 5780 5778
5824 5823 5823 5821 5820 5818 5817 5816 5814 5812 5811 5810 5809 5807 5807 5806 5804 5803 5803 5802 5802 5801 5800 5800 5799 5799 5798 5798 5798 5798 5797 5797 5796 5794 5794 5793 5792 5791 5790 5788 5787 5785 5784 5783 5781 5779 5777 5775 5773
5822 5821 5820 5819 5817 5815 5814 5813 5812 5810 5809 5808 5806 5805 5804 5803 5802 5801 5801 5800 5799 5799 5798 5796 5795 5795 5794 5794 5794 5793 5793 5793 5792 5790 5789 5789 5788 5787 5785 5784 5783 5781 5780 5778 5776 5775 5772 5770 5767
5819 5818 5817 5815 5814 5813 5811 5813 5810 5808 5806 5805 5804 5803 5802 5801 5800 5799 5798 5798 5797 5796 5795 5793 5792 5791 5791 5790 5790 5789 5789 5789 5787 5786 5785 5785 5784 5782 5781 5780 5778 5777 5776 5774 5772 5770 5768 5765 5762
5815 5814 5814 5813 5812 5810 5808 5811 5807 5805 5803 5802 5801 5800 5799 5798 5797 5796 5795 5795 5794 5793 5792 5791 5789 5789 5788 5787 5786 5786 5785 5785 5784 5782 5781 5780 5779 5778 5777 5775 5774 5772 5771 5769 5767 5765 5763 5760 5757